This demonstration page uses our WeatherBlox Daily Observations layout. Learn more.

Left ArrowRight Arrow

38.88101, -77.10428

Hourly Observations for January 18, 2015

Temp ( °F °C ) Dew Point ( °F °C ) Humidity (%) Winds ( mph kmh ) Pressure ( in mb ) Visibility ( mi km ) Precip ( " mm )
12:52 am 00:52 Partly Cloudy 35 1.7 27 -2.8 72 72 S 14 22 30.18 1022 10 16 N/A
1:52 am 01:52 Mostly Cloudy 35 1.7 28 -2.2 76 76 S 9 15 30.16 1022 10 16 N/A
2:52 am 02:52 Mostly Cloudy 35 1.7 29 -1.7 78 78 S 13 20 30.13 1020 10 16 N/A
3:52 am 03:52 Cloudy 35 1.7 29 -1.7 78 78 S 8 13 30.08 1019 10 16 N/A
4:44 am 04:44 Cloudy 36 2 28 -2 75 75 SSW 3 6 30.06 1018 10 16 N/A
4:52 am 04:52 Cloudy 36 2.2 29 -1.7 76 76 SW 5 7 30.07 1018 10 16 N/A
5:52 am 05:52 Cloudy 37 2.8 29 -1.7 73 73 N N/A 30.04 1017 10 16 N/A
6:09 am 06:09 Cloudy with Light Rain 37 3 28 -2 70 70 SE 3 6 30.03 1017 10 16 N/A
6:52 am 06:52 Cloudy with Light Rain 37 2.8 30 -1.1 76 76 S 5 7 30.02 1017 9 14 N/A
7:49 am 07:49 Cloudy with Light Rain 37 3 30 -1 75 75 N N/A 30.00 1016 4 6 0.03 0.76
7:52 am 07:52 Cloudy with Light Rain 37 2.8 31 -0.6 79 79 N N/A 29.99 1016 4 6 0.03 0.76
8:39 am 08:39 Cloudy with Rain 36 2 32 undefined 87 87 N N/A 30.00 1016 3 4 0.12 3.05
8:52 am 08:52 Cloudy with Rain 36 2.2 32 undefined 86 86 N N/A 29.98 1015 2 3 0.17 4.32
9:13 am 09:13 Cloudy with Rain 37 3 32 undefined 81 81 ESE 6 9 29.97 1015 2 3 0.08 2.03
9:52 am 09:52 Cloudy with Light Rain 38 3.3 34 1.1 86 86 N N/A 29.93 1014 2 3 0.17 4.32
10:38 am 10:38 Cloudy with Light Rain 39 4 36 2 87 87 N N/A 29.91 1013 3 4 N/A
10:52 am 10:52 Cloudy with Light Rain 39 3.9 35 1.7 86 86 W 5 7 29.91 1013 2 3 0.16 4.06
11:48 am 11:48 Cloudy with Light Rain 41 5 37 3 87 87 N N/A 29.88 1012 4 6 N/A
11:52 am 11:52 Cloudy with Mist and Fog 41 5 37 2.8 86 86 N N/A 29.86 1011 5 8 0.05 1.27
12:13 pm 12:13 Cloudy with Light Rain 39 4 36 2 87 87 E 3 6 29.83 1010 2 3 0.02 0.51
12:52 pm 12:52 Cloudy with Mist and Fog 42 5.6 38 3.3 85 85 W 8 13 29.78 1009 3 4 0.02 0.51
12:59 pm 12:59 Cloudy with Mist and Fog 43 6 37 3 81 81 W 8 13 29.80 1009 4 6 N/A
1:42 pm 13:42 Cloudy with Mist and Fog 43 6 37 3 81 81 N N/A 29.77 1008 2 3 N/A
1:52 pm 13:52 Cloudy with Mist and Fog 42 5.6 38 3.3 85 85 N N/A 29.75 1008 2 3 N/A
2:20 pm 14:20 Cloudy with Mist and Fog 43 6 37 3 81 81 N N/A 29.74 1007 3 4 N/A
2:52 pm 14:52 Cloudy with Mist and Fog 43 6.1 39 3.9 86 86 N N/A 29.75 1008 2 3 N/A
2:55 pm 14:55 Cloudy with Mist and Fog 43 6 39 4 87 87 N N/A 29.74 1007 2 2 N/A
3:07 pm 15:07 Cloudy with Mist and Fog 43 6 37 3 81 81 N N/A 29.77 1008 1 2 N/A
3:28 pm 15:28 Cloudy with Mist and Fog 45 7 39 4 81 81 N N/A 29.77 1008 2 3 N/A
3:43 pm 15:43 Cloudy with Mist and Fog 43 6 39 4 87 87 N N/A 29.77 1008 2 2 N/A
3:46 pm 15:46 Cloudy with Haze 43 6 37 3 81 81 VRB 6 9 29.80 1009 2 3 N/A
3:52 pm 15:52 Cloudy with Haze 44 6.7 39 3.9 83 83 NNW 7 11 29.78 1009 3 5 N/A
4:06 pm 16:06 Cloudy with Haze 45 7 39 4 81 81 NNW 5 7 29.80 1009 4 6 N/A
4:52 pm 16:52 Mostly Cloudy with Haze 42 5.6 37 2.8 82 82 NNE 3 6 29.79 1009 6 10 N/A
5:52 pm 17:52 Mostly Cloudy 41 5 35 1.7 79 79 N N/A 29.83 1010 9 14 N/A
6:52 pm 18:52 Partly Cloudy 43 6.1 33 0.6 68 68 WNW 5 7 29.85 1011 10 16 N/A
7:52 pm 19:52 Mostly Clear 45 7.2 31 -0.6 58 58 NW 9 15 29.85 1011 10 16 N/A
8:52 pm 20:52 Mostly Clear 43 6.1 31 -0.6 63 63 WNW 6 9 29.86 1011 10 16 N/A
9:52 pm 21:52 Mostly Cloudy 44 6.7 30 -1.1 58 58 WNW 8 13 29.87 1012 10 16 N/A
10:52 pm 22:52 Mostly Cloudy 43 6.1 30 -1.1 60 60 NW 5 7 29.88 1012 10 16 N/A
11:52 pm 23:52 Mostly Clear 43 6.1 30 -1.1 60 60 NW 7 11 29.88 1012 10 16 N/A

Powered by AerisWeather